Regional Weather Roundup
Issued by NWS Jackson, KY

Home | Current Version | Previous Version | Graphics & Text | Print | Product List | Glossary On
Versions: 1 2 3 4 5 6 7 8 9 10 11 12 13 14 15 16 17 18 19 20 21 22 23 24 25 26 27 28 29 30 31 32 33 34 35 36 37 38 39 40 41 42 43 44 45 46 47 48 49 50
000
ASUS43 KJKL 011119
RWRJKL

EAST KENTUCKY HOURLY WEATHER ROUNDUP
NATIONAL WEATHER SERVICE JACKSON KY
600 AM EST SUN FEB 01 2015

NOTE: "FAIR" INDICATES FEW OR NO CLOUDS BELOW 12,000 FEET WITH
NO SIGNIFICANT WEATHER AND/OR OBSTRUCTIONS TO VISIBILITY.

* THESE REPORTS ARE NOT UNDER NWS QUALITY CONTROL AND MAY NOT
  REPORT WEATHER SUCH AS PRECIPITATION AND FOG.

KYZ079-080-083-085-087-088-110-112-115-119-120-011200
...EASTERN KENTUCKY...

CITY           SKY/WX    TMP DP  RH WIND       PRES   REMARKS
JACKSON        CLOUDY    36  14  40 E5        30.15F WCI  32
LONDON         CLOUDY    38  15  39 SE3       30.11F
SOMERSET*      CLOUDY    37  14  38 SE6       30.11F WCI  33
MONTICELLO*    CLOUDY    44  15  31 S12       30.11F
MIDDLESBORO*   CLOUDY    36  22  57 W5        30.17F WCI  32
HARLAN APT*    CLOUDY    34  19  55 E8        30.14F WCI  27
PIKEVILLE APT* MOCLDY    32  21  64 CALM      30.16F
BIG SANDY*     CLOUDY    34  20  56 CALM      30.18R
MOREHEAD APT*  CLOUDY    34  19  55 SE5       30.16F WCI  30
ASHLAND*       CLOUDY    36  25  64 E3        30.17F
$$

KYZ035-036-041-042-044-050-067-078-099-011200
...CENTRAL KENTUCKY...

CITY           SKY/WX    TMP DP  RH WIND       PRES   REMARKS
MT STERLING*   CLOUDY    36  19  51 SE9       30.13F WCI  29
FLEMING/MASON* CLOUDY    33  24  67 SE3       30.15F
DANVILLE*      CLOUDY    34  23  64 S5        30.12S WCI  30
RICHMOND*      CLOUDY    36  18  48 E5        30.09F WCI  32
LEXINGTON      CLOUDY    37  16  42 SE13      30.11F WCI  29
FRANKFORT      CLOUDY    38  18  44 SE12      30.07F WCI  30
$$

KYZ091>093-OHZ055-061-077-WVZ005-015-034-035-042-011200
...SOUTHERN OHIO/WEST VIRGINIA...

CITY           SKY/WX    TMP DP  RH WIND       PRES   REMARKS
COVINGTON      CLOUDY    35  25  66 E9        30.07F WCI  28
COLUMBUS       CLOUDY    32  30  92 SE3       30.14F FOG
DAYTON         FRZ RAIN  33  31  92 E7        30.12F FOG     WCI  27
WILMINGTON     CLOUDY    32  27  81 SE7       30.13S WCI  26
HUNTINGTON     CLOUDY    32  22  66 E6        30.18F WCI  26
CHARLESTON     CLOUDY    31  22  69 CALM      30.19S
PINEVILLE*     CLOUDY    31  27  84 MISG      30.23R
BECKLEY        CLOUDY    32  11  41 S5        30.14F WCI  27
BLUEFIELD      CLOUDY    36   7  29 NE5       30.14F WCI  32
$$

VAZ002-007-008-TNZ017-027-036-066-071-011200
...SOUTHWEST VIRGINIA/EAST TENNESSEE...

CITY           SKY/WX    TMP DP  RH WIND       PRES   REMARKS
WISE*          CLOUDY    34  16  47 SW7       30.16R WCI  28
JONESVILLE*    CLOUDY    32  25  74 CALM      30.20F
ABINGDON*      CLOUDY    36  17  46 E8        30.15F WCI  30
BRISTOL        CLOUDY    34  21  59 N5        30.19R WCI  30
KNOXVILLE      CLOUDY    37  22  54 N3        30.16F
OAK RIDGE      CLOUDY    37  26  64 CALM      30.17F
CROSSVILLE     CLOUDY    43  17  35 S10       30.10F
NASHVILLE      CLOUDY    47  21  35 S9        30.05F
$$

...KEY TO REMARKS...
VSB - VISIBILITY IN MILES
WCI - WIND CHILL INDEX
HX  - HEAT INDEX

$$


USA.gov is the U.S. government's official web portal to all federal, state and local government web resources and services.